Location: Pine Mountain Observatory
(43.7910°N, 120.9377°W)
Time: 10:53:00
(UTC-07:00)

Explorer 11/Cluster Stage 4 - Pass Details

Date: 28 May 2019
Orbit: 467 x 1260 km, 28.8° (Epoch: 19 June)

Event Time Altitude Azimuth Distance (km) Brightness Sun altitude
Rises 02:26:19 0° 227° (SW) 3,826 - -21.9°
Reaches altitude 10° 02:30:24 10° 208° (SSW) 2,704 - -21.6°
Maximum altitude 02:34:04 16° 173° (S) 2,152 - -21.4°
Drops below altitude 10° 02:37:22 10° 138° (SE) 2,372 - -21.1°
Exits shadow 02:37:33 10° 136° (SE) 2,404 8.8 -21.1°
Sets 02:40:36 0° 116° (ESE) 3,133 9.7 -20.9°
